RH
7 7 8 8 9 10 12 12 13 13 13 13 12 12 11 13 14 14 15 15 16 16 17 20 21 23 23 23 22 22 21 18 16 16 16 15 15 18 18 17 15 14 12 11 10 10 9 8 7 6 6 6 7 8 9 9 11 12 14 15 14 14 13 12 13 14 17 22 26 28 28 27 27 29 34 37 29 24 25 24 23 22 21 20 19 19 17 16
7 8 8 8 10 11 12 12 13 14 13 13 12 12 11 13 14 15 16 16 16 16 17 20 21 23 23 22 22 22 22 20 17 16 15 15 14 15 18 18 17 17 15 13 12 11 10 9 8 8 7 8 8 9 9 10 11 12 13 14 15 15 13 12 13 13 16 21 26 28 30 28 27 28 29 31 29 25 26 25 25 24 24 22 21 21 20 19
8 8 8 9 11 12 12 13 13 14 13 13 12 12 12 13 14 15 16 17 17 17 17 20 21 22 22 22 22 22 22 20 18 17 14 13 14 14 16 18 19 18 17 16 14 13 11 10 9 9 9 9 10 10 10 11 11 11 12 14 16 15 13 12 13 14 15 18 25 30 32 32 31 29 27 29 29 27 26 25 25 25 25 26 26 26 25 25
8 9 9 10 11 12 12 13 14 14 13 13 13 12 12 12 14 15 16 17 17 17 17 19 21 22 22 21 22 22 22 19 19 19 15 13 14 14 14 16 18 18 18 18 17 16 14 12 11 10 10 10 10 10 10 11 11 12 12 13 16 15 13 13 13 14 15 17 23 30 34 36 35 29 25 28 29 28 26 24 23 23 25 27 28 28 27 27
9 9 10 10 11 12 13 13 14 14 13 13 12 12 12 12 13 14 16 17 17 17 17 18 20 22 21 20 20 22 21 20 20 19 16 15 14 14 14 14 15 17 18 18 18 18 16 15 13 12 11 11 10 10 11 11 12 14 14 15 15 15 14 14 14 15 15 17 22 29 35 38 38 30 25 28 28 26 24 21 21 22 24 25 25 25 24 25
10 10 11 11 11 12 13 13 14 13 13 13 13 12 12 12 12 14 16 17 17 17 17 18 19 21 21 20 20 21 21 20 20 19 17 16 14 14 14 14 14 15 16 17 17 17 17 16 15 14 12 11 11 10 11 12 13 16 17 17 16 14 15 14 14 15 16 18 21 28 33 36 37 31 27 30 29 26 23 21 21 23 25 25 23 23 23 23
11 11 11 11 11 12 12 13 13 13 13 13 12 12 12 12 12 15 17 17 17 17 17 17 19 21 21 21 20 21 22 21 19 19 18 17 14 13 14 15 15 16 15 16 17 17 17 16 15 14 12 11 11 11 11 12 14 17 19 19 17 15 15 15 15 16 16 19 22 27 32 32 31 28 28 31 29 26 24 21 22 25 26 25 23 23 22 23
12 12 11 11 11 11 12 12 13 13 13 13 12 12 12 12 13 15 16 17 17 17 17 17 19 21 21 21 21 22 23 22 20 19 19 18 16 13 13 14 15 17 17 17 17 17 16 16 15 14 13 13 13 13 12 14 16 18 19 20 19 15 15 16 16 17 17 19 22 25 31 31 27 27 29 31 30 27 25 22 23 26 26 25 24 22 22 22
12 12 11 11 11 11 11 12 13 13 13 12 12 12 13 13 14 15 16 17 17 16 17 17 19 21 21 21 22 22 24 23 21 20 19 19 17 16 14 13 13 15 17 18 17 17 16 16 15 15 15 15 15 14 14 15 16 17 19 19 19 17 17 18 18 18 18 20 22 24 30 33 29 30 32 31 31 30 27 24 25 27 27 25 24 22 22 22
11 12 12 11 11 11 11 12 12 13 12 12 12 13 13 13 14 15 16 16 16 16 17 18 20 20 20 21 22 23 24 24 22 20 19 20 20 19 17 15 14 14 17 19 18 18 17 16 16 15 16 16 16 16 16 16 15 16 18 18 19 19 19 21 20 19 20 20 22 24 30 32 30 32 36 33 30 31 27 24 27 29 27 26 25 24 24 24
11 11 11 11 11 11 11 12 12 12 12 12 12 13 13 13 14 15 16 17 16 16 18 19 19 19 20 20 22 23 24 25 23 20 19 21 22 22 19 19 18 16 17 19 19 18 17 17 16 16 16 16 16 16 15 15 14 15 16 18 21 21 19 21 21 21 21 22 23 25 28 29 28 30 34 32 29 29 26 24 27 28 28 28 27 27 26 26
11 11 11 11 11 11 11 12 12 12 12 12 12 13 12 12 13 14 16 17 16 17 18 19 19 20 20 21 22 24 24 25 23 20 20 21 22 22 22 22 22 20 18 18 18 18 18 18 17 17 18 17 16 15 14 14 14 14 16 19 24 25 22 21 23 23 24 25 26 26 27 28 27 26 27 27 26 26 23 23 27 28 29 30 29 27 26 26
11 11 11 12 11 11 12 12 12 12 11 11 11 12 11 11 12 13 15 16 16 17 19 19 20 21 22 22 23 24 25 26 23 20 20 22 23 24 25 26 26 25 21 19 19 18 19 19 18 19 19 17 16 14 14 14 14 16 17 18 22 26 26 24 24 26 27 29 30 30 29 30 30 28 26 25 24 24 22 23 27 28 30 30 28 25 24 24
11 12 12 12 12 11 11 12 11 11 11 10 10 10 10 10 10 12 14 16 17 17 18 18 20 23 24 24 24 25 27 26 23 21 22 25 27 29 30 30 30 29 27 23 21 19 19 19 19 19 18 17 16 15 15 16 17 17 19 21 23 27 29 28 26 28 29 32 34 35 33 32 31 30 28 26 24 23 23 24 26 27 28 28 26 24 23 22
12 12 12 12 12 12 12 11 11 10 10 9 9 9 9 9 9 11 14 16 17 16 18 20 23 25 25 25 25 27 28 25 23 25 28 31 32 35 36 36 35 35 33 30 26 23 21 20 20 20 20 19 18 18 18 18 20 20 21 26 28 28 30 30 29 29 30 32 35 36 35 33 31 29 27 25 22 23 26 25 25 25 26 26 25 23 23 22
12 13 13 13 12 12 11 11 10 9 8 8 8 8 8 9 9 10 13 16 17 18 21 24 26 27 26 25 26 28 27 24 23 27 32 35 37 40 41 41 41 40 38 36 33 30 27 26 25 23 23 23 22 23 23 23 25 26 26 29 30 30 30 30 29 29 29 30 33 36 35 33 32 29 27 25 23 25 28 27 25 25 24 24 24 23 22 21
13 13 13 13 13 12 11 10 10 8 7 7 7 8 9 9 9 10 13 16 18 20 24 27 27 27 27 25 26 28 27 25 24 29 34 36 39 42 45 46 46 45 42 40 38 35 33 31 30 28 26 26 27 27 27 28 29 30 30 31 32 32 30 28 27 27 27 28 32 36 35 32 30 28 26 25 24 25 28 27 25 23 21 21 21 21 20 19
13 14 14 13 13 12 11 10 9 8 8 7 8 9 9 9 9 11 14 16 21 26 28 28 27 28 28 25 26 28 28 27 27 31 35 37 40 43 46 48 49 49 47 45 43 41 38 36 35 34 33 32 32 32 33 33 33 32 31 31 32 32 30 28 27 26 25 26 31 35 36 30 26 25 24 24 25 25 27 27 24 22 20 20 20 19 19 19
14 14 14 14 13 12 11 10 9 9 9 8 9 10 10 10 9 11 16 20 24 28 28 26 26 28 28 26 25 26 26 26 28 33 35 36 40 43 44 46 49 49 49 48 46 44 41 41 41 41 42 42 41 40 40 39 38 36 34 32 32 30 28 29 29 29 26 24 29 34 34 30 26 26 26 25 26 26 26 25 24 23 21 21 20 19 20 20
14 14 14 13 13 12 11 11 10 10 10 11 11 11 10 10 10 12 20 25 26 26 25 26 28 29 29 28 25 23 23 24 27 32 34 36 38 40 43 46 47 49 50 48 47 46 42 43 45 44 44 44 43 42 42 41 40 37 34 31 31 28 27 30 30 31 29 24 26 30 32 29 25 26 27 26 27 26 26 25 23 24 22 21 21 20 20 19
14 14 14 13 13 13 12 12 11 11 12 13 13 12 11 10 9 10 15 23 27 27 27 28 29 30 31 30 26 22 22 24 26 28 31 36 37 39 42 45 46 48 50 48 47 47 43 41 42 40 40 40 41 40 39 39 37 34 32 29 30 29 28 32 34 34 33 28 26 27 29 28 25 26 27 27 28 26 25 25 25 24 23 21 21 21 20 17
14 14 14 13 13 13 13 13 13 12 13 13 14 13 11 10 9 8 9 17 25 27 26 28 29 31 33 32 28 24 23 23 24 27 29 32 35 39 42 44 46 48 48 48 48 47 45 43 41 39 39 38 38 38 36 36 35 33 32 30 31 32 32 33 34 35 33 29 27 25 26 26 26 26 26 25 26 26 26 26 26 24 23 22 22 21 18 15
14 14 14 13 14 14 14 14 14 14 14 14 14 13 13 11 10 10 10 15 23 26 25 26 28 31 34 33 31 29 26 22 23 28 29 30 34 38 40 43 45 47 48 48 47 46 43 41 40 39 39 39 39 39 38 37 38 37 35 36 36 37 36 33 32 33 31 28 26 25 26 26 26 25 25 26 26 28 28 26 25 23 23 23 22 21 17 14
15 14 14 14 14 14 15 15 14 14 15 15 14 14 13 12 11 11 13 17 23 24 23 25 28 32 34 33 33 33 30 25 23 27 30 32 36 38 39 41 44 46 47 46 45 44 41 39 40 40 41 43 44 44 43 41 42 41 40 42 40 40 40 37 34 32 30 28 26 27 26 26 30 29 28 30 29 28 28 25 25 23 24 25 23 21 16 13
15 15 14 14 14 15 15 15 15 15 15 15 14 14 13 13 12 12 14 18 22 22 22 25 29 31 34 34 34 34 34 30 26 28 32 36 39 40 42 43 45 48 48 47 46 45 43 43 44 45 46 49 50 52 51 48 46 45 44 45 43 41 40 38 37 32 29 28 26 30 29 25 32 36 34 33 30 28 27 25 25 24 25 26 24 20 14 11
15 15 15 15 15 15 15 16 16 15 15 15 14 15 14 13 13 12 14 17 19 20 21 24 27 30 33 35 35 36 36 35 33 31 34 38 40 43 45 46 48 51 51 49 47 45 46 46 48 50 52 53 55 58 57 55 52 48 47 47 45 45 43 40 38 35 33 30 28 36 39 31 34 39 37 34 31 28 27 26 26 26 26 26 23 18 13 9
16 16 16 15 15 15 16 16 16 15 15 16 15 16 15 14 13 13 14 15 16 18 21 23 26 29 32 35 37 38 39 39 36 34 35 38 41 45 47 49 51 53 53 51 47 45 45 46 48 49 50 52 56 60 60 59 57 54 53 52 50 49 46 41 39 38 37 32 31 40 45 40 38 39 38 34 31 30 29 28 28 27 27 25 20 15 11 8
16 16 16 16 16 16 16 16 16 16 16 16 16 16 15 14 13 14 16 15 14 18 22 24 26 28 30 33 38 41 42 43 41 38 37 39 42 45 48 51 54 55 55 53 50 46 44 44 46 46 46 50 55 60 60 60 60 58 57 56 55 52 47 43 41 41 39 36 38 45 47 43 38 38 38 35 32 31 31 31 30 29 27 23 18 13 10 8
16 17 17 17 17 17 17 17 17 16 16 16 17 16 16 15 14 15 17 16 16 19 22 24 27 27 28 32 39 44 46 47 47 43 39 40 43 46 49 52 56 59 58 55 54 49 45 44 45 44 45 50 57 60 60 61 62 61 60 60 59 54 50 48 46 46 44 42 45 49 47 42 38 37 38 35 34 33 32 32 31 29 26 20 15 12 8 7
17 17 17 17 18 19 19 18 17 17 17 17 17 16 16 15 14 15 16 17 18 21 23 27 28 27 28 31 38 44 46 47 49 47 43 43 43 45 48 51 56 60 58 56 55 50 47 46 44 45 46 49 55 58 59 62 63 62 61 60 59 57 54 52 52 53 49 46 45 45 45 44 42 39 37 36 35 34 34 33 31 28 24 18 13 9 7 6
18 18 19 19 20 21 20 19 18 17 17 17 17 17 16 15 15 15 16 18 20 23 28 31 30 28 29 31 35 40 42 44 46 47 48 49 47 46 48 50 53 56 54 55 54 49 47 46 45 46 47 49 53 55 58 61 64 64 62 60 57 56 56 56 55 53 48 45 45 44 44 46 46 45 42 40 37 36 37 36 31 27 22 16 11 8 7 6
20 20 21 22 23 23 21 20 19 18 18 18 17 17 16 15 15 15 16 19 23 27 32 33 30 29 29 30 34 38 40 42 43 45 49 51 52 51 50 51 54 55 53 52 52 49 47 47 48 48 47 48 51 55 58 59 61 62 62 63 63 61 61 57 54 50 45 45 47 48 48 45 45 47 45 43 41 40 40 36 30 26 19 13 9 7 6 5
22 23 24 25 25 23 22 20 19 18 18 18 17 16 16 15 14 14 16 20 26 32 34 34 30 28 29 31 35 38 40 42 43 45 47 48 51 53 52 52 54 56 55 51 50 51 49 47 49 50 48 46 48 54 60 60 60 60 62 69 72 73 72 62 54 50 45 43 45 49 51 47 46 49 47 44 43 43 40 35 30 23 15 11 8 7 6 5
25 26 26 26 24 23 22 20 19 19 19 18 17 16 16 15 13 13 15 21 29 34 35 33 29 28 29 32 36 40 42 43 43 45 48 49 51 54 55 52 51 54 56 52 49 50 50 49 48 49 48 46 47 51 57 61 63 61 64 73 75 79 81 71 61 56 50 43 41 46 51 53 54 52 49 47 45 43 40 35 29 20 12 10 8 6 6 6
26 26 25 24 23 22 21 20 20 19 19 18 17 16 15 14 13 13 16 23 30 35 35 31 28 27 29 33 38 41 42 42 43 47 51 53 55 57 57 52 50 54 55 53 50 48 50 50 47 46 46 47 49 51 54 62 66 63 68 79 80 81 83 76 65 60 58 49 39 41 47 54 62 57 50 51 48 44 40 35 28 19 11 9 7 6 7 7
25 24 23 22 21 20 20 19 19 19 18 17 16 16 15 14 13 13 18 25 32 35 33 30 27 26 30 36 40 41 41 42 45 50 53 57 59 61 60 53 50 53 55 55 53 50 50 49 47 46 45 45 51 55 56 62 69 72 77 85 85 82 80 76 66 61 65 58 43 42 46 53 63 61 56 57 52 45 40 34 26 18 11 8 7 7 7 7
23 22 22 21 19 19 19 19 19 18 17 17 16 15 15 14 14 15 20 27 33 34 32 28 26 28 33 39 40 40 41 44 48 52 55 60 61 62 64 58 55 56 58 59 58 54 54 53 49 47 47 47 52 59 61 61 69 77 82 87 88 84 80 76 72 68 70 64 49 44 51 56 61 65 66 62 53 47 41 31 22 15 11 8 7 8 7 6
21 21 21 20 18 18 18 18 18 17 17 17 16 15 15 14 15 18 23 29 33 34 31 27 27 32 37 40 41 42 43 46 50 53 57 61 62 62 63 62 62 64 66 66 65 61 59 59 52 48 51 54 56 62 65 64 67 72 79 86 89 90 87 81 82 83 80 74 60 50 55 58 58 66 72 64 53 49 40 27 18 13 10 9 8 7 7 6
21 21 21 20 19 18 18 18 17 17 17 16 16 15 15 15 18 21 26 31 35 34 31 30 32 37 40 41 43 45 48 51 53 56 59 61 63 62 58 60 65 68 70 70 70 69 66 62 55 50 55 61 63 64 68 70 71 71 79 88 90 92 91 87 90 96 96 92 82 67 58 55 59 68 71 62 54 47 35 23 16 12 10 9 7 7 6 5
20 21 21 20 20 19 19 19 18 17 17 16 16 16 16 17 20 25 29 34 37 35 34 36 38 40 40 42 46 49 54 57 57 61 64 65 68 64 56 57 62 65 68 70 73 76 71 65 61 57 59 67 69 69 70 75 79 80 85 94 98 96 95 93 89 92 101 102 97 88 67 54 65 74 68 60 53 40 28 19 14 12 10 8 7 7 5 5
21 21 21 21 21 20 20 18 18 17 16 16 16 16 17 19 22 28 33 38 39 38 39 41 41 41 41 43 48 52 59 63 64 67 68 69 70 65 59 59 57 61 68 70 73 77 74 70 67 64 66 72 75 75 76 78 81 86 91 98 102 100 99 101 91 85 92 96 100 101 77 58 69 76 67 58 47 32 22 16 13 11 10 7 7 5 4 5
21 21 21 21 20 20 20 19 18 17 16 16 17 17 18 20 23 30 36 40 42 42 44 43 41 42 43 44 49 56 65 71 73 74 74 72 70 66 62 61 59 61 67 67 69 74 76 75 71 69 73 76 76 79 81 80 81 87 93 98 102 101 100 100 91 83 83 85 98 105 84 67 74 75 64 52 39 26 18 14 13 11 8 7 6 5 4 4
22 22 22 21 21 21 20 19 18 18 17 17 16 17 18 20 25 30 37 42 44 45 45 44 43 44 43 46 52 60 71 79 80 79 79 73 68 67 66 65 63 60 60 65 70 73 76 79 77 76 78 75 76 81 81 80 82 86 91 95 100 102 98 93 90 88 83 83 96 100 84 75 77 70 56 42 30 21 16 13 13 9 7 7 5 5 5 4
22 21 21 20 20 20 19 19 19 18 18 18 17 17 17 20 25 31 38 43 46 47 45 44 45 44 44 48 55 63 75 86 87 83 80 73 67 68 70 68 65 61 63 70 75 79 82 82 81 82 81 78 77 79 77 76 76 75 78 87 97 101 99 97 96 97 93 88 92 94 84 78 75 64 49 35 25 19 15 13 12 8 7 7 5 5 5 4
21 20 20 19 19 19 18 19 19 19 19 19 19 18 18 20 24 31 39 44 45 47 47 47 46 45 47 52 59 68 80 92 95 87 79 73 71 74 76 75 74 73 77 81 83 87 87 83 84 87 86 84 81 77 74 72 71 70 75 87 99 101 99 101 101 101 101 94 88 89 86 77 69 59 45 31 22 18 15 13 11 9 7 6 6 6 5 5
20 18 17 17 17 18 18 18 18 18 19 20 20 20 20 21 23 30 38 41 44 47 48 48 48 49 55 61 69 78 86 94 99 91 82 82 87 91 89 88 89 89 91 93 94 95 91 84 86 89 87 87 84 78 76 75 76 79 84 93 101 100 98 100 100 101 104 98 88 87 85 75 64 53 40 29 21 17 15 13 10 9 8 7 7 7 7 6
17 16 15 15 15 16 16 16 17 17 19 21 21 22 22 23 25 31 36 40 45 48 49 49 50 56 67 77 82 85 89 95 99 94 91 95 100 99 96 95 96 96 98 100 99 99 95 86 84 86 87 88 84 80 81 82 82 83 86 94 101 101 100 101 100 101 104 99 89 84 81 71 60 48 36 27 21 17 15 13 10 9 8 9 8 8 8 7
15 13 13 13 12 13 14 14 16 19 22 23 24 25 26 27 30 33 37 43 46 47 50 52 54 64 80 90 92 90 90 96 98 95 97 102 101 98 96 97 98 99 100 101 100 101 96 87 84 88 90 88 85 85 87 86 83 82 85 94 102 102 100 101 100 101 103 99 89 81 76 67 55 44 34 25 19 17 15 12 10 9 9 9 9 9 8 7
12 11 11 11 10 11 12 15 18 22 25 26 27 30 30 31 34 36 40 45 47 50 56 57 62 76 90 96 97 92 90 97 99 97 99 101 99 98 99 99 98 99 100 100 101 102 97 91 91 95 95 91 89 92 92 88 85 82 83 95 104 101 98 101 101 101 101 95 85 78 73 64 51 39 31 24 19 17 15 12 10 10 10 10 10 9 8 7
11 9 8 9 9 10 13 17 21 24 27 29 30 33 36 37 39 41 45 51 55 58 61 65 75 86 90 93 95 91 91 98 100 98 100 100 99 99 100 98 98 99 100 100 101 100 99 97 97 100 99 93 91 94 92 88 84 77 79 96 105 97 95 99 100 100 99 90 82 77 70 59 46 35 28 23 19 17 14 12 11 11 11 12 10 10 9 8
10 9 9 9 9 13 17 20 25 28 31 35 37 40 45 49 53 58 62 65 68 70 73 78 87 90 89 93 95 92 95 100 99 98 100 100 99 100 100 99 99 100 99 100 100 99 100 99 99 102 100 91 90 92 89 84 76 68 78 97 99 90 92 95 94 96 96 88 80 73 64 53 42 33 28 22 18 17 13 12 12 12 12 12 11 11 10 8
10 9 10 12 14 20 23 27 34 38 40 46 51 55 62 70 78 84 84 80 80 86 89 88 89 91 94 96 95 95 100 101 99 99 100 99 100 100 100 100 100 100 100 100 100 99 99 100 100 102 99 91 90 91 88 81 69 66 82 97 94 88 91 90 86 90 92 85 76 66 57 48 40 32 26 20 18 16 12 12 13 14 15 14 13 12 11 9
Wind_Speed
7 7 8 10 11 12 13 14 16 18 20 21 23 24 25 26 27 29 30 30 31 32 34 37 41 45 47 49 48 46 44 40 37 33 27 22 16 12 10 10 10 11 13 13 14 15 16 16 16 15 15 15 15 16 18 19 19 20 22 23 27 32 36 40 43 45 46 42 36 33 31 30 30 28 25 23 30 34 31 32 32 32 33 34 33 33 35 35
8 8 9 11 11 12 13 15 17 18 20 22 23 25 26 27 28 29 30 31 31 32 34 36 40 44 47 49 49 46 44 40 38 34 29 23 18 13 11 10 11 12 14 14 15 16 17 17 17 16 16 16 17 17 19 20 21 22 23 25 27 32 36 39 42 45 46 44 39 34 31 31 32 32 31 28 31 35 34 34 35 35 37 38 37 38 39 39
9 10 10 11 12 13 14 15 17 19 21 22 24 26 27 28 29 30 30 31 31 32 34 36 38 42 46 49 49 46 44 40 37 36 31 25 20 15 13 12 12 14 15 16 16 18 19 19 19 19 18 19 19 19 20 20 22 23 25 27 28 32 37 39 42 45 46 46 41 36 31 31 32 35 37 34 33 36 38 39 40 40 40 40 40 41 42 43
10 11 12 12 13 14 15 16 18 20 22 23 24 26 27 28 29 30 31 31 32 32 33 35 38 41 44 47 48 46 43 40 37 35 32 27 22 18 15 14 14 15 16 17 18 19 20 21 21 21 21 21 22 22 22 22 23 24 26 28 31 34 38 40 43 45 47 46 44 38 32 30 31 37 42 38 36 38 41 44 45 45 44 43 42 44 45 45
12 13 13 14 15 15 16 17 19 21 23 24 25 26 27 28 29 30 31 32 32 33 34 35 37 40 43 45 47 46 43 41 38 34 31 28 25 21 18 16 15 16 17 19 20 21 22 23 23 23 22 22 23 24 23 23 24 25 27 30 33 36 39 41 44 46 47 47 45 40 35 32 31 38 43 40 39 42 45 48 50 49 48 46 46 46 47 46
13 14 15 15 16 17 17 18 19 21 23 25 25 26 27 28 29 30 32 33 33 34 34 35 37 39 43 45 47 47 44 42 40 36 32 27 25 23 20 18 17 17 18 20 21 22 22 23 23 23 23 23 24 25 25 25 25 27 28 32 34 37 40 43 45 47 48 47 45 42 38 35 34 39 42 40 41 45 48 51 52 51 50 49 49 48 47 47
14 15 16 17 18 18 19 19 20 22 24 25 26 27 27 28 29 30 32 34 34 34 34 35 37 40 43 45 46 46 45 43 42 39 35 30 26 24 22 20 19 19 19 20 21 22 22 23 23 23 24 24 25 25 26 27 28 29 31 33 36 39 42 45 47 48 48 47 45 43 40 39 40 43 43 41 44 48 51 53 53 52 51 51 49 48 48 47
15 17 18 18 19 20 20 21 21 23 25 26 27 27 28 28 29 31 33 34 34 35 35 36 38 41 43 45 46 46 45 44 43 41 38 34 30 26 24 23 21 21 21 21 21 22 22 23 23 23 24 25 25 26 28 29 30 32 33 36 38 41 43 46 47 48 48 48 45 43 42 41 44 47 45 43 46 50 53 55 54 53 52 51 49 49 49 48
16 18 19 20 20 21 22 22 23 24 26 27 27 28 28 29 30 31 33 35 35 35 36 37 40 42 44 46 47 47 45 43 41 41 39 37 34 31 29 27 24 23 22 22 22 22 22 23 23 24 25 25 26 28 29 31 33 34 36 38 40 42 44 46 47 48 48 47 46 45 44 43 46 47 45 45 48 50 53 56 55 52 50 50 50 50 51 50
18 19 20 21 21 22 23 23 24 25 27 28 28 28 29 30 30 31 33 35 36 37 38 40 42 44 46 48 48 47 45 42 39 39 39 38 36 35 34 32 29 26 25 24 23 23 23 24 24 25 26 26 28 29 31 33 35 37 38 39 41 43 44 46 47 48 47 46 46 45 44 44 47 46 43 47 50 52 55 56 54 52 50 50 51 52 52 53
19 20 21 21 22 23 24 24 25 26 27 28 29 29 30 30 31 32 33 35 37 38 40 42 44 46 48 50 50 48 45 41 38 37 37 36 37 37 36 35 33 30 28 27 25 25 25 25 26 27 28 28 30 32 33 35 37 38 39 40 41 43 45 46 47 48 47 47 46 45 44 44 47 48 45 49 53 55 57 58 56 54 52 51 52 53 55 55
21 21 22 23 23 24 25 25 26 27 28 29 30 30 31 31 32 32 33 35 37 39 41 43 45 47 49 51 51 49 45 41 37 35 34 34 35 36 36 35 34 32 30 29 29 28 28 27 28 29 30 31 32 34 35 36 38 39 40 40 42 43 45 47 47 48 47 47 46 46 46 45 47 51 52 55 57 58 60 60 57 55 52 52 53 55 57 55
23 23 23 24 24 25 26 26 27 28 29 30 30 31 32 32 33 33 34 36 38 39 42 44 46 48 49 50 50 48 44 39 35 32 32 32 33 33 33 33 33 32 31 31 31 31 30 30 30 30 32 33 34 36 37 38 39 40 41 41 43 44 44 46 47 47 48 48 46 47 48 47 48 51 55 58 60 61 63 62 58 55 52 52 55 57 57 56
24 24 24 25 25 26 26 27 28 28 29 30 31 32 33 34 34 35 35 36 38 39 41 43 45 48 49 49 47 45 41 37 33 32 32 32 31 31 30 30 31 31 30 31 31 32 32 32 32 32 34 34 35 36 38 39 40 41 42 42 44 44 44 45 47 48 49 48 47 48 50 49 48 52 56 59 62 63 64 62 59 55 54 55 57 58 57 57
25 25 25 26 26 27 27 28 29 29 30 31 32 33 34 35 35 36 36 37 38 40 41 42 44 46 47 46 44 42 39 36 33 32 31 31 31 31 30 29 29 29 29 30 30 31 32 33 33 33 35 35 36 37 38 40 40 41 43 43 44 44 43 45 46 48 49 48 48 49 51 50 50 53 57 60 63 63 63 62 60 57 57 58 58 58 58 58
27 27 26 27 27 28 28 29 30 31 31 32 33 34 34 35 36 36 36 38 39 40 40 42 43 44 45 44 41 39 38 36 34 33 32 32 31 31 30 29 29 28 28 29 30 31 32 33 34 35 36 36 36 38 39 40 41 41 43 44 45 45 43 44 46 47 48 49 50 49 51 51 51 55 59 61 63 62 60 60 61 60 61 61 60 61 61 61
28 28 28 28 28 29 30 31 32 32 33 33 34 35 36 36 36 36 36 38 40 40 40 41 42 42 43 43 39 36 36 35 35 35 35 34 33 32 32 31 30 29 29 30 31 32 34 35 36 37 38 39 39 40 41 42 42 42 44 45 45 44 44 44 46 48 49 51 51 51 52 52 53 57 60 63 64 62 59 58 60 63 65 65 65 65 66 66
30 30 29 29 30 31 31 32 34 34 35 35 35 36 36 37 37 36 36 37 38 39 39 41 42 42 43 43 37 34 34 34 35 37 36 36 35 35 34 34 32 31 31 32 32 34 36 37 39 40 41 41 42 43 44 44 44 44 45 45 45 45 45 46 48 50 51 53 53 52 55 55 55 59 62 63 63 61 59 59 61 65 67 68 69 69 70 69
31 31 31 30 31 32 33 34 35 36 37 37 38 38 38 38 38 37 36 37 37 37 39 40 42 42 43 42 37 34 34 34 36 39 39 39 39 37 36 36 36 35 35 35 35 36 37 39 39 40 41 41 42 43 44 44 43 44 45 46 46 47 48 48 50 52 53 55 54 53 55 57 56 60 62 62 61 60 59 61 64 66 67 68 69 70 69 69
33 33 33 32 32 34 35 36 38 38 38 39 39 40 40 39 38 35 34 36 37 37 39 40 42 42 43 43 39 37 36 35 38 41 41 42 42 41 40 39 39 38 38 38 38 38 39 39 40 40 40 41 41 42 42 42 43 44 45 46 47 48 50 51 51 52 53 55 55 54 56 57 56 59 62 61 61 60 62 66 67 67 68 68 68 68 68 68
34 34 35 35 35 36 37 39 40 40 40 41 41 41 41 41 40 37 33 34 36 38 39 41 42 43 44 44 42 39 38 38 40 42 43 44 44 43 43 43 42 40 40 40 40 40 40 41 41 40 40 41 41 41 42 43 44 46 47 48 49 50 51 51 51 51 53 55 55 54 56 59 59 60 62 63 64 65 67 69 68 67 68 68 68 67 68 68
36 36 37 37 37 38 39 41 42 43 43 43 43 44 44 43 43 42 39 37 37 39 41 42 43 44 44 45 44 43 43 43 42 43 45 46 46 47 46 45 44 43 42 42 42 42 42 42 42 42 42 42 42 43 44 45 46 48 50 51 51 52 52 52 52 51 53 55 56 56 57 61 62 62 65 67 69 69 69 69 68 68 69 70 68 67 68 69
37 37 38 39 39 40 41 42 44 45 45 45 45 45 45 45 44 43 42 40 38 40 42 44 45 45 45 46 45 46 47 47 46 47 48 49 50 50 49 48 47 46 45 44 43 44 44 45 45 44 44 44 44 45 46 47 47 48 50 51 51 52 52 53 53 53 54 56 59 59 61 65 64 63 67 70 71 70 69 69 69 71 73 72 69 69 70 72
38 39 40 41 41 42 43 44 45 46 47 47 47 46 46 46 46 44 43 41 40 41 43 45 45 46 47 47 47 48 50 49 50 51 52 53 54 54 52 51 49 47 47 46 45 45 46 46 45 45 45 45 46 47 48 48 47 48 50 51 52 52 52 54 54 55 56 58 61 61 63 68 67 65 66 68 71 71 71 72 73 75 74 72 71 72 73 76
40 40 41 43 43 44 44 45 46 47 48 48 48 48 47 47 47 45 44 42 41 43 44 45 46 47 48 48 48 50 52 52 53 53 55 57 58 58 56 54 52 50 48 48 48 47 47 46 45 45 45 46 47 48 48 49 49 50 50 51 53 53 53 55 56 58 59 61 63 62 65 69 69 67 65 66 70 72 72 73 74 74 73 71 72 72 73 76
41 42 43 44 45 45 46 46 47 48 48 48 48 49 48 48 48 47 46 44 43 44 45 46 48 48 49 49 50 51 53 55 55 54 56 58 59 60 59 57 55 53 51 51 50 49 48 47 46 46 47 48 49 49 50 50 51 52 53 54 55 55 55 56 58 60 61 64 65 64 65 69 68 66 65 67 71 72 72 73 73 72 71 71 71 71 73 76
43 43 44 45 46 46 47 47 47 48 48 48 48 48 49 49 49 48 47 46 46 46 47 48 49 49 50 51 51 52 54 56 56 55 56 58 59 60 60 59 57 56 54 53 52 50 50 49 48 49 50 50 51 51 51 52 53 54 55 56 57 56 57 59 60 61 63 66 67 64 64 67 67 67 68 71 71 72 72 71 71 71 72 72 71 72 76 78
44 45 46 46 47 47 47 47 48 48 48 48 48 49 49 49 49 48 47 48 48 48 48 49 50 50 52 53 53 54 55 57 58 57 57 58 60 60 60 59 58 57 55 54 53 51 50 49 49 50 51 52 52 53 53 53 54 56 57 58 58 59 60 61 61 61 64 67 67 63 63 66 69 69 71 73 72 72 73 72 72 73 73 72 72 75 78 81
46 46 47 47 47 47 47 48 48 48 48 49 49 50 50 50 49 48 47 48 50 50 50 50 51 51 53 54 53 54 56 57 58 58 58 59 60 60 60 59 58 57 55 54 54 53 52 52 52 53 53 54 54 54 54 54 56 57 59 59 60 60 61 62 62 61 64 66 64 63 65 69 72 71 72 74 75 75 74 74 75 76 75 73 74 78 81 83
48 48 49 49 48 48 48 48 48 48 49 50 50 51 51 51 50 48 48 49 51 51 52 52 52 53 54 54 53 54 56 57 58 58 59 59 60 60 60 58 57 57 56 55 55 54 55 55 56 56 56 56 56 56 56 56 57 58 60 61 62 62 62 62 61 60 63 66 65 66 70 73 74 74 72 73 76 76 75 75 76 76 75 74 77 80 82 85
49 50 50 50 49 49 49 49 48 49 50 51 51 51 51 51 50 49 49 50 52 53 53 52 53 54 54 54 54 55 56 57 58 59 59 59 60 60 60 59 57 57 57 57 57 57 57 58 59 59 59 58 58 59 58 58 59 60 61 63 64 65 64 63 61 62 65 68 68 69 71 73 74 74 75 75 76 76 76 76 76 76 75 74 77 80 82 86
50 51 51 50 50 50 50 50 49 50 51 52 53 52 52 52 51 49 49 50 53 54 53 54 54 54 55 55 55 56 57 58 59 60 61 61 61 60 60 59 59 60 60 59 59 60 60 61 61 62 62 61 61 61 60 61 62 62 63 64 65 65 65 65 64 66 68 70 71 70 71 73 72 73 75 77 77 76 76 77 77 76 76 75 77 80 83 87
51 51 50 50 50 50 50 51 51 52 53 54 54 53 53 52 51 50 50 51 53 54 54 55 55 55 56 56 56 57 59 60 60 61 62 63 63 62 60 60 60 61 62 61 61 61 62 63 63 64 64 63 63 62 62 62 63 64 65 64 63 63 64 66 67 68 70 72 73 72 72 73 72 72 74 75 76 77 77 78 77 76 76 76 77 80 84 88
51 50 50 50 50 51 51 52 52 53 54 55 55 55 54 52 52 51 52 52 53 54 54 55 56 56 56 57 58 59 61 62 62 62 63 64 65 64 62 61 61 62 62 62 62 62 63 63 64 65 65 65 64 63 63 63 63 65 65 64 62 62 63 66 68 70 72 73 74 72 72 74 72 72 74 74 75 77 78 78 76 75 76 77 78 80 85 89
51 51 50 50 51 51 52 53 53 55 56 56 56 56 54 52 53 53 53 53 54 54 55 55 56 56 57 58 59 60 62 64 63 63 64 65 66 65 63 62 63 62 61 61 63 64 64 64 64 65 65 64 64 64 64 64 64 66 66 64 63 62 64 66 69 72 74 75 75 72 72 74 74 75 75 73 74 76 77 77 75 74 76 77 77 81 86 90
52 52 51 51 51 52 52 54 55 57 58 58 59 58 55 53 53 54 54 54 55 55 56 56 56 58 60 60 61 62 64 64 64 65 65 65 66 65 63 63 64 63 61 62 65 66 65 64 64 64 64 64 64 65 65 64 65 66 66 65 64 64 66 68 71 73 74 76 75 72 72 72 74 78 76 73 75 76 76 75 74 74 76 75 76 81 87 90
53 53 53 52 52 52 54 55 57 59 59 60 61 59 56 54 54 55 55 55 56 56 57 57 57 59 62 63 63 64 65 66 66 67 67 66 67 66 64 64 64 63 63 65 67 67 67 66 65 64 63 63 64 65 65 65 65 66 66 66 65 66 68 71 73 74 74 76 75 72 73 71 72 77 76 73 76 76 73 73 72 73 75 74 76 81 86 89
55 55 55 54 53 54 56 58 59 60 61 63 62 59 57 55 55 55 56 56 57 57 57 57 59 61 63 64 66 65 66 68 68 69 69 67 67 67 65 65 65 65 66 68 69 68 67 66 65 64 63 64 64 65 65 65 65 67 68 67 66 67 69 71 74 75 74 77 77 73 72 72 72 74 75 75 77 75 73 72 71 73 75 75 77 82 87 90
57 58 58 56 55 57 59 61 62 63 64 64 63 60 58 56 56 56 57 57 57 57 57 58 60 63 64 65 66 66 68 69 70 72 71 70 69 67 66 66 67 69 70 70 69 68 67 67 66 65 64 64 64 64 65 65 66 68 69 68 67 67 69 71 74 75 74 76 78 76 74 73 72 71 73 76 76 75 73 73 73 75 76 76 79 84 88 90
60 62 61 59 58 60 63 64 65 65 66 65 63 60 58 57 57 57 57 58 58 57 58 60 62 64 65 66 67 67 69 71 73 74 73 72 71 69 67 67 68 70 70 69 68 68 67 67 67 67 66 65 65 64 64 65 67 68 69 69 68 68 70 73 73 74 75 76 78 78 77 75 72 70 73 75 75 74 74 74 76 77 76 77 80 84 88 90
63 65 64 62 62 63 65 67 68 67 66 65 63 60 59 58 58 57 58 58 58 58 60 61 63 65 67 67 67 69 71 73 74 75 75 74 72 70 68 68 69 70 68 67 67 67 67 66 67 68 67 66 66 64 63 64 65 67 69 70 69 69 71 74 75 74 75 78 78 78 80 76 70 70 72 73 73 72 72 75 78 77 76 77 81 85 88 90
67 68 67 65 66 67 68 70 69 68 67 65 63 61 61 60 59 59 58 58 60 61 62 63 64 67 69 69 69 71 73 74 75 76 76 74 72 70 69 70 71 69 67 66 67 66 66 67 67 68 67 67 66 64 63 64 65 66 68 69 70 70 72 75 77 75 75 78 77 78 81 76 71 72 72 71 70 68 70 75 77 76 76 78 82 85 88 89
69 69 69 69 70 69 71 72 70 69 67 65 64 63 63 63 62 61 60 61 62 64 65 66 68 70 71 71 72 73 75 76 76 76 75 73 71 70 70 72 73 71 67 66 67 66 67 68 68 67 68 67 65 63 63 64 65 66 68 70 71 72 74 77 78 77 76 76 75 78 79 75 73 74 71 69 68 67 70 75 76 76 77 80 83 86 88 89
71 72 72 73 73 72 72 72 71 69 68 66 66 65 66 66 64 63 62 63 64 66 67 68 70 71 73 74 75 76 77 77 76 75 73 72 71 71 74 76 75 72 68 67 67 67 68 69 69 68 68 67 64 63 64 64 66 66 67 69 71 73 76 78 78 78 76 74 74 77 77 74 73 72 70 69 69 68 71 75 76 77 80 82 85 86 88 89
74 75 75 75 75 75 73 72 71 70 69 68 68 68 68 68 67 65 65 65 66 67 69 70 72 73 75 77 77 77 77 76 75 73 71 72 73 75 78 78 75 70 67 67 68 69 69 70 69 68 67 66 63 63 64 65 66 66 66 68 71 73 76 79 78 77 75 74 74 74 75 75 71 69 68 68 68 69 72 74 74 77 81 83 85 87 88 88
77 78 78 78 77 76 74 73 73 72 70 69 70 71 71 71 70 69 68 69 69 70 71 72 74 75 77 78 77 76 75 73 72 71 72 74 75 76 78 77 73 69 67 68 69 69 70 70 69 68 67 65 63 62 62 62 64 65 65 68 71 73 77 79 78 74 72 74 73 71 74 75 71 67 67 67 68 71 73 74 74 77 82 84 85 87 88 88
79 80 79 78 78 77 76 74 73 72 70 71 74 75 74 75 74 72 72 73 73 73 75 76 76 77 78 78 76 75 72 70 69 71 73 72 72 74 76 75 71 69 67 68 69 69 69 69 69 68 65 63 61 60 60 61 62 63 65 67 69 73 76 78 77 73 71 74 74 71 72 73 69 67 67 68 70 73 75 74 74 79 83 85 85 87 88 88
82 81 80 79 79 78 77 76 74 73 73 74 77 78 78 78 77 76 76 76 76 77 78 79 79 79 78 76 75 73 69 68 70 72 71 70 71 75 76 72 69 68 67 67 68 68 69 69 68 66 63 61 60 58 58 60 61 62 64 66 68 71 74 75 74 72 71 74 74 72 71 69 67 67 66 67 71 75 76 75 75 79 84 84 85 88 88 88
84 83 81 80 80 78 77 76 76 77 77 78 80 81 81 80 80 80 80 79 80 81 81 82 82 79 76 76 75 71 69 70 72 73 73 72 74 76 73 69 68 67 67 67 66 67 68 67 66 64 60 58 58 58 58 59 61 62 64 66 67 69 71 71 71 70 71 72 72 72 71 67 65 65 65 66 71 75 76 76 76 80 83 84 86 88 89 88
84 84 81 81 81 79 78 77 78 79 79 80 83 84 83 82 83 83 83 83 84 84 84 85 83 80 79 78 74 69 69 71 72 74 76 75 75 74 70 67 67 67 67 66 66 66 66 65 63 60 58 57 57 57 57 58 61 63 64 65 67 68 68 68 68 70 70 70 70 71 70 66 63 63 64 66 71 75 74 75 78 81 83 84 86 88 88 88
84 83 81 82 82 80 79 79 79 80 82 84 87 86 85 85 86 87 87 87 86 86 86 85 83 81 79 75 69 68 70 71 73 76 76 76 75 72 69 68 68 68 68 67 66 65 64 62 59 57 58 58 58 57 56 58 62 63 63 64 65 65 66 66 67 70 70 69 69 69 66 63 61 62 62 65 70 72 72 75 80 82 82 84 86 88 88 87
83 83 82 82 82 81 81 81 82 85 87 87 87 86 85 85 84 86 87 84 82 83 83 81 78 76 73 69 68 69 70 72 75 77 78 77 74 71 70 69 69 69 69 67 65 63 61 59 57 58 60 60 58 57 58 60 64 63 62 62 63 63 65 65 66 68 68 67 68 67 63 61 61 60 61 64 68 70 70 73 78 82 83 83 85 87 87 84
Wind_Direction
280 294 303 311 319 326 330 334 337 339 340 339 338 338 340 343 345 346 347 347 348 349 349 349 352 353 353 351 349 346 346 347 350 354 354 348 339 329 323 323 323 319 316 314 314 313 313 312 312 312 311 310 314 319 319 322 324 326 326 328 332 331 330 332 333 333 334 336 337 341 346 348 347 342 337 327 330 338 332 328 325 319 319 316 315 314 314 315
280 292 301 308 315 320 325 330 333 336 337 335 335 336 339 342 344 344 344 345 346 347 346 347 350 352 352 352 350 346 345 346 348 351 352 350 344 331 323 320 317 314 310 308 308 308 307 306 306 305 305 306 311 314 316 319 319 321 323 325 329 328 328 330 329 330 331 332 334 339 344 346 344 340 335 329 333 337 331 326 323 319 317 316 317 317 317 317
282 291 299 305 310 315 320 326 330 332 333 332 332 334 337 340 342 341 341 343 343 343 343 345 348 350 351 352 351 347 344 346 347 348 350 351 348 337 327 318 309 306 303 302 302 300 300 300 301 301 303 307 311 314 314 315 315 318 321 323 326 325 325 326 326 327 328 330 332 337 342 344 342 337 333 333 334 334 330 327 324 320 318 316 317 319 320 319
285 291 298 302 306 310 315 322 326 328 329 329 330 332 335 338 339 339 339 341 341 340 340 342 345 347 349 350 350 347 343 344 347 347 348 349 348 341 330 319 308 302 298 298 299 298 298 297 298 300 303 307 310 312 312 312 313 316 319 320 322 323 323 323 323 324 326 329 331 334 339 341 340 335 332 333 333 330 328 326 325 322 320 319 318 320 322 321
288 293 297 300 302 305 312 319 323 325 325 326 328 330 333 335 336 336 337 339 340 338 338 340 342 344 346 347 348 348 345 343 345 346 346 346 345 341 333 322 312 304 299 297 297 297 297 297 298 300 303 305 306 308 310 311 312 314 316 318 320 321 320 320 321 321 323 327 330 332 336 338 336 333 333 333 332 328 325 325 325 323 321 321 322 323 324 323
290 295 297 298 299 302 309 316 320 321 322 323 325 327 330 332 333 335 336 338 339 337 336 338 339 341 343 345 346 347 346 342 342 343 344 344 342 338 333 327 318 309 304 300 298 298 298 299 299 300 300 301 302 305 309 311 311 311 314 317 318 319 318 319 319 320 322 325 329 331 333 335 333 331 333 333 331 327 325 325 324 322 321 322 324 325 324 324
292 295 297 297 297 301 307 314 319 319 319 321 323 325 328 330 331 334 336 338 338 336 335 336 338 340 341 343 344 345 344 341 340 340 340 340 338 335 332 330 324 317 310 305 302 300 299 298 298 298 298 299 302 306 309 310 310 311 314 316 316 317 317 317 318 319 323 325 328 330 331 333 332 331 332 332 329 327 325 325 324 322 321 323 325 325 324 323
293 295 296 296 296 299 305 312 316 317 318 319 321 323 326 328 330 333 336 337 337 336 336 337 338 339 340 341 343 343 342 340 339 338 336 335 334 332 330 328 325 320 314 308 304 301 299 298 298 298 299 301 303 306 308 309 310 312 313 314 315 315 316 316 317 320 323 326 328 329 330 332 332 331 331 330 328 325 324 325 324 321 322 324 326 325 323 321
292 293 294 295 296 299 304 310 314 315 316 317 320 322 324 327 330 333 335 336 336 336 337 338 339 339 339 340 341 341 340 338 336 334 334 332 331 329 327 326 324 320 315 310 306 303 301 300 300 300 300 302 303 304 306 308 310 312 313 314 314 314 315 316 319 321 323 326 327 328 329 332 333 331 330 329 326 322 322 325 323 321 322 324 325 324 322 319
290 291 292 294 296 299 303 308 312 314 315 316 318 320 323 326 329 332 334 335 334 336 338 339 339 338 339 339 339 339 338 335 333 332 331 330 329 326 325 326 325 321 317 313 310 307 305 303 303 302 302 303 303 304 305 307 310 311 312 313 313 313 315 317 319 321 323 325 327 329 329 331 332 330 328 326 323 320 322 324 322 321 322 322 323 322 320 318
288 289 291 293 296 299 303 307 311 313 314 315 317 319 323 325 327 330 332 333 333 335 337 337 337 338 338 338 337 337 336 334 330 329 329 328 326 325 324 325 325 321 318 315 311 309 306 305 304 303 302 302 303 304 305 307 309 309 311 312 312 313 315 317 318 319 321 323 326 327 328 330 331 329 326 324 322 321 323 324 322 321 321 319 319 318 317 316
288 289 291 293 296 299 302 307 310 312 313 314 316 319 321 323 325 327 330 330 331 334 335 335 336 337 337 337 336 336 335 333 329 327 327 326 325 324 324 324 323 321 317 314 310 307 304 303 303 302 302 302 302 302 304 305 306 307 308 311 313 315 316 317 317 318 320 322 324 325 325 329 330 327 325 322 321 321 322 323 321 320 320 318 317 315 314 314
287 289 291 293 296 299 302 306 308 310 311 313 315 317 320 321 322 325 327 328 330 332 333 334 336 337 337 336 336 335 335 334 330 328 327 327 326 324 323 322 321 319 315 312 309 305 303 302 301 301 300 300 300 300 302 303 303 305 307 310 313 316 317 317 316 317 320 322 324 324 324 327 329 326 323 320 320 321 322 323 321 320 321 318 316 315 314 315
287 289 291 293 295 298 301 304 307 309 310 311 314 316 318 319 321 323 325 326 328 330 331 333 335 336 336 336 335 336 336 336 334 331 329 328 327 325 323 321 319 317 314 310 307 304 302 300 299 298 297 297 298 299 299 300 301 305 307 310 312 315 317 316 316 316 318 322 324 324 323 325 327 324 321 319 319 320 322 322 321 321 321 318 316 316 316 316
286 289 291 293 294 297 300 302 305 307 308 310 313 315 317 318 320 322 323 324 326 328 331 333 334 334 334 335 336 337 337 337 337 335 332 329 328 327 324 320 317 315 312 309 306 303 300 299 298 296 296 296 297 297 298 300 303 306 308 311 313 314 315 315 314 314 316 319 322 323 321 324 326 322 319 318 318 320 321 322 323 322 320 317 317 317 317 316
285 287 289 291 293 296 298 300 303 305 307 309 311 314 316 317 318 320 321 322 324 327 331 332 332 332 333 335 336 335 334 335 337 338 336 334 330 328 326 322 317 313 310 307 304 301 299 299 298 297 297 298 300 300 302 304 306 308 308 310 312 312 312 312 313 314 316 318 320 321 320 323 325 321 318 318 318 320 321 323 324 322 319 318 318 317 316 315
284 285 288 290 293 295 297 299 301 303 305 308 310 313 315 316 318 319 319 320 323 327 329 328 329 331 334 335 333 332 332 333 336 338 339 338 334 331 328 325 320 314 309 305 303 300 299 301 302 302 302 303 305 305 306 307 308 308 307 308 310 310 311 312 313 314 316 318 321 321 319 321 323 320 318 318 318 320 322 324 323 321 320 319 318 317 316 315
282 284 287 289 291 294 296 297 299 302 304 306 309 311 314 315 316 317 318 320 323 324 324 325 327 330 333 332 329 327 329 331 334 336 337 338 336 333 330 327 323 320 315 311 309 307 305 307 308 309 309 309 309 309 309 309 309 308 307 307 308 309 310 312 314 315 316 318 321 322 319 320 322 319 316 318 319 320 323 323 320 320 321 320 318 316 315 314
281 283 285 287 290 292 294 295 297 300 303 305 308 310 312 314 314 317 318 319 319 318 319 323 325 327 329 329 324 322 325 328 333 334 334 335 334 334 332 328 325 323 321 319 317 315 313 313 314 314 315 313 312 311 310 310 309 308 308 308 308 309 311 313 315 315 316 318 320 320 318 320 321 318 317 318 319 321 322 320 320 321 320 318 316 315 314 313
280 282 284 286 288 290 292 294 296 299 301 304 307 308 311 312 312 314 314 313 314 315 317 321 323 324 326 328 325 322 323 327 332 333 333 332 331 332 333 330 326 323 321 320 321 320 318 318 318 318 317 315 313 312 311 312 311 311 310 309 310 310 312 314 315 316 316 317 318 317 316 316 317 316 317 318 319 322 322 320 320 321 319 317 315 314 313 312
279 281 283 285 287 289 291 293 295 297 300 303 305 307 308 309 309 310 309 310 312 314 317 319 321 323 324 326 325 323 323 327 330 331 332 331 330 330 331 330 328 323 320 318 319 320 319 318 319 319 318 315 314 314 314 315 314 313 311 310 311 311 312 314 316 317 316 316 316 314 313 313 314 316 317 318 320 322 321 321 320 319 318 316 315 314 313 313
278 280 282 284 286 288 290 292 294 296 299 302 304 306 307 308 309 310 311 312 313 315 317 318 319 321 322 325 325 324 324 326 328 329 330 330 330 330 329 328 327 325 322 318 316 316 315 315 316 317 317 316 315 315 315 316 315 313 311 311 312 312 313 314 315 317 316 315 314 312 311 311 313 316 317 318 320 321 322 321 320 318 318 316 314 314 313 314
277 279 281 283 286 288 290 292 294 296 298 301 303 305 307 308 309 311 311 312 314 315 316 316 317 318 321 324 325 326 325 325 326 329 330 330 330 329 327 326 326 325 324 320 317 314 313 313 313 314 314 314 314 314 315 315 315 314 313 314 315 315 316 316 316 316 316 315 313 312 312 311 313 317 318 319 320 321 322 322 320 320 318 316 315 314 315 317
277 279 281 283 285 287 290 292 294 296 298 300 302 304 306 307 309 311 311 313 314 314 314 314 314 317 320 323 325 326 325 324 324 327 330 330 329 328 327 325 324 323 323 322 319 316 313 312 312 312 311 311 312 313 315 316 317 317 317 317 317 318 318 318 316 316 316 314 311 312 312 313 317 320 321 321 320 322 324 323 322 320 318 316 316 316 318 320
276 278 280 282 285 287 290 292 293 295 297 299 301 304 305 307 309 311 312 313 313 313 312 312 313 316 319 322 324 325 325 323 322 325 328 329 329 329 327 326 324 323 322 322 321 317 313 312 311 310 310 310 312 315 316 318 319 318 318 318 318 318 319 318 317 316 315 313 311 314 314 314 319 323 322 321 321 324 324 323 321 318 316 316 315 316 319 319
276 278 280 282 284 287 289 291 293 295 296 299 301 303 305 307 309 311 311 312 312 312 311 311 312 315 318 321 323 323 324 323 322 323 325 327 328 328 327 327 325 325 324 322 320 318 315 313 310 309 310 312 314 317 318 319 319 318 318 318 317 318 318 317 317 316 316 314 314 317 317 316 319 321 321 322 323 324 322 320 318 315 315 315 315 316 318 317
276 278 279 282 284 286 288 289 291 293 295 298 300 302 304 306 308 309 310 311 310 310 310 310 311 314 317 320 321 322 323 323 323 322 323 325 327 326 326 327 326 325 324 322 320 318 317 315 312 311 311 313 316 318 319 320 318 318 319 318 317 318 318 318 317 317 316 315 315 318 318 317 319 321 322 322 323 322 320 318 316 315 316 316 317 318 318 317
276 277 279 281 283 285 287 289 290 292 294 296 298 300 302 304 305 307 308 309 309 309 309 309 311 313 316 318 320 321 322 323 323 323 322 323 325 325 326 327 327 326 325 322 320 318 318 318 317 316 315 317 318 319 320 320 318 318 318 317 318 318 318 316 316 317 316 315 316 317 316 317 320 322 322 322 323 322 319 318 317 318 318 317 319 320 319 319
276 277 278 280 282 284 286 287 288 290 293 294 296 298 300 301 303 304 306 307 307 308 308 309 310 312 314 317 319 320 321 322 323 322 321 321 323 325 325 326 328 328 325 322 320 318 318 319 320 320 320 320 320 319 320 319 319 318 317 317 317 316 316 315 316 318 316 315 316 316 317 319 320 322 322 322 323 322 319 318 319 320 320 320 321 321 321 321
276 277 279 280 282 284 285 286 287 289 291 292 294 296 298 299 301 302 304 305 305 306 308 308 309 310 312 315 317 319 319 321 322 321 320 320 321 323 324 325 327 327 325 322 320 318 319 320 321 322 322 321 320 319 319 319 318 317 316 316 316 315 315 316 317 317 315 314 315 317 320 321 321 322 321 321 322 321 319 318 319 320 320 321 322 323 323 322
277 278 279 280 282 283 284 284 285 287 289 291 292 294 296 297 298 300 302 304 303 305 307 307 308 309 311 313 315 316 316 317 319 319 319 319 319 320 322 323 324 325 323 322 320 318 319 319 321 321 321 320 319 318 318 318 317 316 316 315 315 315 315 315 316 316 314 314 316 319 321 321 322 322 321 322 322 320 319 318 320 321 321 322 323 323 323 322
277 278 279 280 281 282 282 282 284 285 287 289 290 292 293 294 296 299 301 301 301 303 305 306 307 309 310 311 314 314 314 315 316 317 318 318 318 319 320 321 322 322 321 320 318 317 317 318 319 319 318 318 318 317 317 317 316 315 315 315 315 315 314 314 315 315 314 315 316 319 320 320 321 321 321 323 322 320 319 319 321 322 321 322 322 322 323 324
277 278 279 279 280 280 280 281 282 284 285 287 288 290 291 292 296 299 299 299 300 302 304 305 306 307 309 311 313 313 314 314 315 315 315 316 316 316 318 319 319 319 319 318 317 316 316 316 317 317 317 316 316 316 316 315 314 313 314 314 314 314 313 313 315 314 313 314 317 320 320 319 319 319 320 321 320 319 319 320 321 321 320 321 321 322 324 325
276 277 277 278 278 278 279 280 282 283 284 285 287 288 289 292 296 297 297 298 298 300 302 303 304 306 308 310 312 313 314 313 313 314 314 314 314 315 317 317 316 316 317 317 316 315 315 315 316 316 315 315 315 315 315 314 313 313 313 313 313 313 313 314 314 313 313 314 316 319 318 317 318 317 318 320 318 317 318 319 320 319 319 320 321 322 324 325
274 275 276 276 276 277 279 280 282 283 283 284 285 286 289 293 295 296 296 296 298 299 300 301 303 306 307 308 310 312 312 312 313 313 313 314 313 314 316 315 314 315 315 316 316 315 314 314 315 314 313 314 315 314 314 313 313 312 312 312 312 312 312 313 313 312 312 313 315 318 318 317 316 315 317 318 317 316 317 318 318 316 318 320 320 322 324 325
272 273 274 274 275 277 278 280 281 282 283 284 284 286 290 293 294 295 295 296 298 299 300 301 303 305 305 307 310 311 311 311 312 313 313 313 313 314 316 314 312 312 312 314 315 314 313 314 313 312 312 313 313 313 313 313 312 311 311 311 311 312 312 312 312 312 312 312 315 318 317 316 315 314 316 317 315 315 316 317 316 314 316 318 318 321 324 324
271 272 273 273 275 276 278 279 280 281 282 283 283 286 290 291 293 294 294 295 296 297 299 301 303 303 304 307 309 310 310 311 311 312 312 312 313 315 316 314 311 311 311 312 314 314 313 312 312 311 311 311 312 311 311 311 311 310 310 310 311 312 312 312 311 311 311 311 314 317 316 315 314 313 315 315 313 314 315 314 313 313 314 315 318 321 323 324
269 270 271 272 274 276 277 278 279 280 281 282 284 287 289 290 292 293 292 293 295 296 298 300 301 301 303 306 308 308 309 310 309 310 310 311 312 313 314 313 310 309 310 310 311 312 311 311 310 310 310 310 310 309 309 310 310 310 309 310 311 311 312 312 310 309 310 310 312 315 315 314 315 314 314 313 312 313 313 312 312 313 314 316 319 322 324 324
268 269 270 271 273 275 276 277 278 279 280 282 284 286 288 290 291 292 291 292 294 296 297 298 298 300 302 304 306 308 309 308 308 308 308 309 311 311 311 310 309 308 308 308 309 310 310 309 308 308 309 310 309 308 308 309 309 309 309 309 310 310 310 310 309 309 309 309 310 313 314 314 316 315 312 311 312 313 313 313 314 315 317 319 321 323 324 325
268 268 269 271 273 274 275 276 277 279 280 282 284 286 288 289 290 290 290 292 294 296 296 297 297 300 302 303 305 307 307 306 306 306 306 308 310 309 308 309 310 308 306 306 307 307 307 307 306 307 308 309 309 307 307 308 309 309 309 308 309 310 309 308 307 308 308 308 309 310 312 315 317 315 312 311 312 313 313 314 315 317 320 321 322 323 325 326
266 267 269 271 272 273 274 275 276 278 279 281 284 286 287 287 287 288 289 292 294 295 295 296 298 299 301 302 304 305 306 306 305 304 305 307 309 308 307 308 310 308 305 305 305 305 306 305 305 306 307 309 308 307 306 307 308 307 307 308 308 308 308 306 306 308 308 308 309 309 310 316 317 313 311 312 312 314 315 315 317 318 321 322 323 324 326 326
266 268 270 271 271 273 274 275 276 277 279 282 284 285 285 285 285 286 289 292 293 294 295 296 298 299 299 301 302 303 304 304 303 302 303 306 307 307 307 307 308 307 305 303 303 304 304 304 305 305 307 308 307 306 306 306 306 306 306 307 307 306 306 304 305 308 308 308 309 307 309 315 315 311 311 312 312 314 315 315 317 319 321 322 324 326 327 327
267 269 270 271 271 272 273 274 276 278 280 282 283 283 283 284 284 286 289 291 292 293 294 296 298 298 298 299 301 303 303 302 301 301 302 304 305 306 307 308 308 307 304 303 303 303 303 303 303 304 305 306 305 305 305 306 305 305 305 306 306 306 305 304 305 306 307 308 307 305 309 313 313 312 313 313 313 315 316 316 318 320 322 324 325 327 328 327
268 269 270 270 271 272 273 275 277 279 280 282 283 283 282 282 284 286 288 289 290 292 294 296 296 296 297 299 301 302 302 300 300 301 302 304 305 306 307 308 307 305 304 303 303 302 301 301 302 303 304 303 303 304 304 305 304 304 305 305 305 306 305 303 304 304 305 305 304 304 308 310 311 312 313 312 313 316 317 318 320 321 323 324 326 328 328 327
268 269 269 270 271 272 274 276 278 279 280 282 282 282 281 281 283 285 286 288 290 292 294 294 294 296 297 299 301 301 300 300 300 301 303 305 306 308 308 307 306 304 301 301 300 299 299 299 300 302 302 301 302 303 304 304 303 304 305 305 304 304 303 301 301 302 303 303 303 306 308 308 309 311 311 311 313 316 318 319 321 322 323 324 326 328 328 328
267 268 269 271 272 274 275 276 278 279 281 283 282 281 280 281 281 283 286 289 291 292 292 292 294 296 298 300 301 301 300 300 300 302 305 306 306 306 305 303 302 300 298 297 297 296 297 298 299 301 300 300 301 302 303 303 302 303 304 303 303 302 301 300 300 302 302 301 304 307 307 307 310 311 311 312 313 316 318 320 322 322 323 325 327 328 328 329
267 268 270 272 273 274 275 276 278 280 281 281 280 280 281 281 282 285 287 290 291 291 291 292 294 297 299 300 300 300 300 299 302 305 305 301 299 300 300 299 297 296 294 294 294 295 296 297 299 299 299 300 301 302 302 301 302 302 302 302 301 300 299 299 300 301 301 301 304 307 306 307 311 312 312 313 315 317 319 321 323 322 323 326 328 328 329 330
267 268 269 271 272 274 276 277 278 279 279 278 279 280 281 281 284 286 288 289 289 291 292 292 294 297 300 300 300 299 299 300 303 303 298 293 293 296 297 295 294 292 291 292 293 295 296 298 299 298 298 299 301 302 302 301 301 301 300 300 298 297 298 299 299 299 300 302 305 307 306 308 311 311 312 314 316 318 320 322 323 323 324 327 327 328 330 330
267 268 270 271 272 273 275 276 276 277 277 278 279 280 281 283 285 286 287 288 289 290 291 292 294 297 298 299 298 298 299 302 301 297 293 291 292 294 293 293 292 290 290 292 293 294 296 297 297 296 297 299 301 302 302 301 300 300 300 299 297 297 298 298 298 299 300 303 306 306 307 309 310 310 313 315 318 320 321 321 322 323 325 328 328 329 331 330
267 269 270 271 271 272 273 274 275 276 277 277 278 279 282 284 285 285 286 287 288 289 290 292 294 295 296 297 296 297 301 301 297 294 291 290 290 291 291 291 291 291 291 292 293 294 295 295 295 296 297 299 301 301 301 301 301 302 302 300 298 298 298 297 298 299 301 304 306 306 307 308 309 311 314 317 320 321 320 320 322 325 327 329 329 330 331 330
266 267 269 269 270 271 272 274 274 274 275 276 278 281 284 285 286 285 285 286 288 289 291 292 293 294 294 294 295 299 301 297 293 291 290 288 289 289 289 291 292 292 292 293 294 295 294 293 294 295 297 299 300 300 301 302 302 303 303 299 298 299 299 299 300 301 302 304 305 305 305 307 309 312 315 317 319 320 320 322 324 325 328 329 329 331 332 330
265 266 268 269 270 270 271 272 272 273 276 279 281 283 285 285 285 285 285 288 290 291 291 292 293 293 292 292 296 299 297 292 290 289 288 287 288 288 288 290 291 292 292 293 293 293 292 293 295 296 296 298 299 300 302 303 304 306 304 299 299 300 299 300 302 302 302 304 305 305 306 308 310 312 314 316 318 320 322 324 325 326 328 330 330 332 332 330